Home   Weather   Pokhara   Past weeks

Flag for Nepal Past Weather in Pokhara, Nepal — Yesterday and Last 2 Weeks

Now
70 °F

Light rain. Passing clouds.


Feels Like: 70 °F
Forecast: 68 / 87 °F
Wind: 2 mph from North

Location: Kathmandu Airport

Current Time: Jul 22, 2017 at 4:37:56 am

Latest Report: Jul 22, 2017 at 3:35 am


Visibility: 4 mi

Pressure: 29.83 "Hg (27.03 "Hg at 847m altitude)

Humidity: 100%

Dew Point: 70 °F

Location of PokharaLocation

Past Weather in Pokhara — Graph

°F

Pokhara Temperature Yesterday

Maximum temperature yesterday: 82 °F (at 2:35 pm)
Minimum temperature yesterday: 72 °F (at 12:35 am)
Average temperature yesterday: 76 °F

High & Low Weather Summary for the Past Weeks

 TemperatureHumidityPressure
High86 °F (Jul 18, 11:35 am)100% (Jul 7, 5:35 am)29.92 "Hg (Jul 7, 5:35 am)
Low68 °F (Jul 12, 2:35 am)55% (Jul 12, 2:05 pm)29.68 "Hg (Jul 20, 3:35 pm)
Average75 °F83%29.84 "Hg
* Reported Jul 7 3:35 am — Jul 22 3:35 am, Pokhara. Weather by CustomWeather, © 2017

Note: Actual official high and low records may vary slightly from our data, if they occured in-between our weather recording intervals... More about our weather records

Advertising

Pokhara Weather History for the Previous 24 Hours

Scroll right to see more
 ConditionsComfort  
Time TempWeatherWind HumidityBarometerVisibility
3:35 am
Sat, Jul 22
70 °FLight rain. Passing clouds.2 mph100%29.83 "Hg4 mi
2:35 am70 °FPartly cloudy.3 mph100%29.83 "Hg4 mi
1:35 am70 °FPartly cloudy.No wind100%29.83 "Hg4 mi
12:35 am72 °FPartly cloudy.5 mph94%29.86 "Hg4 mi
12:05 am72 °FPartly cloudy.6 mph94%29.86 "Hg4 mi
11:35 pm
Fri, Jul 21
72 °FPartly cloudy.6 mph94%29.89 "Hg4 mi
11:05 pm73 °FPartly cloudy.6 mph89%29.89 "Hg4 mi
10:35 pm73 °FPartly cloudy.3 mph89%29.86 "Hg4 mi
10:05 pm73 °FPartly cloudy.6 mph89%29.86 "Hg4 mi
9:35 pm73 °FPartly cloudy.5 mph89%29.86 "Hg4 mi
9:05 pm73 °FPartly cloudy.5 mph94%29.83 "Hg4 mi
8:05 pm75 °FPartly cloudy.5 mph83%29.83 "Hg5 mi
7:35 pm75 °FBroken clouds.5 mph83%29.80 "Hg5 mi
6:35 pm77 °FBroken clouds.2 mph79%29.77 "HgN/A
6:05 pm79 °FBroken clouds.6 mph74%29.77 "HgN/A
5:35 pm79 °FBroken clouds.6 mph74%29.74 "HgN/A
4:35 pm81 °FBroken clouds.7 mph66%29.74 "HgN/A
4:05 pm81 °FBroken clouds.6 mph70%29.74 "HgN/A
3:35 pm81 °FBroken clouds.8 mph70%29.77 "HgN/A
3:05 pm81 °FBroken clouds.6 mph66%29.77 "HgN/A
2:35 pm82 °FBroken clouds.5 mph62%29.80 "HgN/A
2:05 pm81 °FBroken clouds.7 mph70%29.80 "HgN/A
1:35 pm79 °FBroken clouds.8 mph74%N/A5 mi
1:05 pm77 °FBroken clouds.6 mph79%29.83 "Hg5 mi
12:35 pm79 °FRain. Broken clouds.3 mph74%29.83 "Hg5 mi
12:05 pm77 °FRain. Broken clouds.6 mph79%29.83 "Hg4 mi
11:35 am77 °FRain. Broken clouds.9 mph83%29.83 "Hg4 mi
11:05 am73 °FRain. Broken clouds.10 mph94%29.83 "Hg5 mi
10:35 am79 °FRain. Broken clouds.5 mph79%29.83 "Hg4 mi
10:05 am79 °FBroken clouds.3 mph70%29.83 "Hg5 mi
9:35 am79 °FBroken clouds.3 mph74%29.86 "Hg5 mi
9:05 am79 °FBroken clouds.3 mph79%29.86 "Hg5 mi
8:35 am75 °FBroken clouds.2 mph83%29.86 "Hg5 mi
8:05 am75 °FBroken clouds.No wind83%29.83 "Hg4 mi
7:35 am73 °FBroken clouds.2 mph94%29.83 "Hg4 mi
7:05 am72 °FBroken clouds.2 mph94%29.83 "Hg4 mi
6:35 am72 °FBroken clouds.No wind94%29.80 "Hg4 mi
6:05 am72 °FBroken clouds.2 mph94%29.80 "Hg4 mi
5:35 am72 °FPartly cloudy.No wind94%29.77 "Hg4 mi
4:35 am72 °FPartly cloudy.No wind100%29.77 "Hg4 mi
Weather by CustomWeather, © 2017

See weather overviewHow to use our weather pages